Погода Закаталы

Погода Закаталы : погода сейчас, прогноз погоды и архив. Всё, что Вы хотите узнать о погоде Закаталы!

Поиск расширенной информации на нашем сайте:

Другие новости

Новости СМИ2

Главная страница сайта

Новости сайта

02.10.2013

Напоминаем, что на нашем новом сайте вы можете получить высокодетализированные прогнозы погоды по пунктам России, СНГ и мира (включающие важные для авиации метеовеличины, такие как направление и скорость ветра, видимость, явления погоды, количество и форма облачности, нижняя и верхняя граница облачности), а также ознакомиться с разнообразными материалами по авиационной метеорологии и подборкой полезных ссылок на эту тему.

Сайт Метеоцентр.Азия посвящён разработке технологий оптимизации авиаметеорологического обслуживания, включая проектирование и перспективное создание нескольких автоматизированных авиаметеорологических систем:
- система выпуска высокодетальных прогностических карт явлений погоды для нижнего воздушного пространства по России и ближнему зарубежью;
- система верификации прогнозов TAF (выпускаемых синоптиками официальных АМСГ РФ и ближнего зарубежья) и AUTOTAF (выпускаемых сайтом Метеоцентр.Азия) - выявление ошибок, онлайн-сопоставление с фактической погодой METAR, автоматическое внесение коррективов в прогнозы при резком отклонении фактической погоды от прогноза, подсчёт оправдываемости прогнозов по элементам и в целом;
- система обработки, анализа и отображения авиаметеорологической информации для применения провайдерами метеорологической информации.

Рекомендуем: Искусственный камень акриловый камень.

Погода Закаталы - сегодня

Время (UTC), дата Ветер
(°,м/с) 
Видим.   Явления Облачность Т
(°С)
Тd
(°С)
f(%) Тe
(°С)
Pmin
(гПа)
dP
(гПа)
Po
(мм)
O2
(г/м3)
Тmin Tmax R s Состояние
почвы
15 22.03.17 270 (З) 20000 м    8/8 1000 м средняя 
[Sc|Ac und]
+10.3 -7.1 29 +10  1019.1  0.1  721  280           
21 22.03.17 020 (С) 4000 м    10/10 600 м 
[Sc]
+6.9 -2.7 50 +7  1022.8  0.9  723  284           
00 23.03.17 290 (З) 20000 м    4/0 средняя 
[Ac und]
+6 -4.5 47 +6  1023  -0.1  723  285           
03 23.03.17 050 (СВ) 20000 м    5/5 1000 м средняя 
[Sc|Ac und]
+3.5 -4.3 57 +3  1024.4  0.8  723  288           
09 23.03.17 180 (Ю) 20000 м    6/6 1000 м средняя 
[Sc|Ac und]
+11.6 -2.2 38 +12  1022.4  -0.5  723  280           
12 23.03.17 210 (ЮЗ) 20000 м    3/0 средняя 
[Ac und]
+14.2 -3.6 29 +15  1020.6  -1.2  722  277           
15 23.03.17 110 (В) 20000 м    3/0 средняя 
[Ac und]
+13.2 -3.6 31 +14  1020.8  722  278           
18 23.03.17 090 (В) 4000 м    10/10 600 м 
[Sc]
+10.6 -4.1 35 +11  1023.9  2.4  724  281    +14.8       
21 23.03.17 050 (СВ) 4000 м    10/10 600 м 
[Sc]
+8.4 +2.7 67 +8  1024.3  724  283           
00 24.03.17 140 (ЮВ) 2000 м  слаб. дождь  10/10 600 м 
[Cu med, cong]
+6.8 +4.2 83 +7  1026.8  726  285           
06 24.03.17 050 (СВ) 4000 м    10/10 600 м 
[Sc]
+5 +3 87 +5  1030.9  2.9  728  288           
09 24.03.17 160 (Ю) 4000 м    10/10 600 м 
[Sc]
+6.2 +4.6 89 +6  1031.2  0.5  729  286           
12 24.03.17 140 (ЮВ) 10 км    8/8 1000 м 
[Sc]
+8.9 +3.8 70 +9  1029.1  -1.4  728  283           
15 24.03.17 160 (Ю) 20000 м    6/6 1000 м 
[Sc]
+9.4 +3 64 +9  1028.5  -0.5  727  283         
21 24.03.17 180 (Ю) 2000 м  слаб. дождь  10/10 600 м 
[Cu med, cong]
+6.2 +4.1 86 +6  1030.8  728  286           
00 25.03.17 160 (Ю) 2000 м    10/10 600 м 
[Sc]
+7.1 +2.9 75 +7  1029.5  -1  728  285           
03 25.03.17 180 (Ю) 2000 м    10/10 600 м 
[Sc]
+6.4 +3.8 83 +6  1028.3  -0.4  727  285         
06 25.03.17 180 (Ю) 2000 м    10/10 600 м 
[Sc]
+6 +3.9 86 +6  1027.9  -0.4  726  286           
09 25.03.17 230 (ЮЗ) 4000 м    10/10 600 м 
[Sc]
+7.8 +3.6 75 +8  1025.5  -1.9  725  283           
12 25.03.17 360 (С) 10 км    8/8 1000 м средняя 
[Sc|Ac und]
+10.4 +3 60 +11  1021.7  -3.1  723  280           
15 25.03.17 020 (С) 20000 м    5/5 1000 м средняя 
[Sc|Ac und]
+10.4 +2.1 56 +11  1019.8  -1.8  721  280           
18 25.03.17 050 (СВ) 20000 м    ясно 
+6.7 +1.8 71 +7  1021.4  0.8  722  284    +11       
21 25.03.17 020 (С) 20000 м    ясно 
[Sc]
+6.9 +2.6 74 +7  1022.7  723  284           
00 26.03.17 070 (В) 4000 м    10/10 600 м 
[Sc]
+7.6 +1.1 63 +8  1021.9  -0.4  722  283           
03 26.03.17 020 (С) 20000 м    3/0 средняя 
[Ac und]
+5.7 +0 67 +5  1021.7  -0.5  722  285           
Время (UTC), дата Ветер
(°,м/с) 
Видим.   Явления Облачность Т
(°С)
Тd
(°С)
f(%) Тe
(°С)
Pmin
(гПа)
dP
(гПа)
Po
(мм)
O2
(г/м3)
Тmin Tmax R s Состояние
почвы

Для получения пояснительной информации подведите курсор к названию столбца.

ПОГОДА Закаталы - архив

Всё, что Вы хотите узнать о погоде Закаталы - удобно и подробно!

Выберите нужную дату (начиная с 1 января 2015* года) и нажмите кнопку "Найти".
Будут отображены архивные сводки погоды по пункту Закаталы, начиная с указанной даты.


Отображать данные в формате CSV (для использования в таблицах Excel)


Внимание! Наш архив погоды предназначен исключительно для личного некоммерческого использования в познавательных целях. Если Вам необходимы официальные справки о состоянии погоды (для производственных, юридических, коммерческих и т.п. целей), обращайтесь в органы Росгидромета.

*Примечание: данная дата относится к архиву по метеостанциям СССР (Россия, СНГ, Балтия).
Архив по метеостанциям Зарубежной Европы и Азии (кроме Китая) хранится 10 дней, по другим регионам земного шара (Китай, Африка, Америка, Австралия, Океания) - 1 день.

Закаталы - район местоположения метеостанции


Название, широта, долгота, высота метеостанции:
Закаталы 41.6°ш. 46.6°д. 490 м над ур. моря [Азербайджан]

Дополнительная информация

В oтличие oт бoльшинства пoгoдных сайтoв мы публикуем пoдрoбную метеoинфoрмацию в детальнoм прoфессиoнальнoм фoрмате.

Характеристики температуры и влажнoсти вoздуха измеряются на высoте 2 м в тени вдали oт зданий и деревьев.
Скoрoсть ветра измеряется на высoте 10 м (на урoвне рoста челoвека скoрoсть ветра ниже в 1.5-2 раза). Если метеoстанция нахoдится в гoрoде или в лесу, тo скoрoсть ветра занижена на 2-4 м/с пo сравнению с oткрытым местoм. Скoрoсть ветра над акватoриями крупных рек и oзёр, а также на вершинах хoлмoв на 2-5 м/с выше, чем в oбычных услoвиях.
Атмoсфернoе давление в разных тoчках местнoсти мoжет значительнo oтличаться oт давления на метеoстанции, в зависимoсти oт услoвий рельефа (при пoдъёме на 10 м давление пoнижается примернo на 1 мм рт.ст.).